CDT,Max TemperatureF,Mean TemperatureF,Min TemperatureF,Max Dew PointF,MeanDew PointF,Min DewpointF,Max Humidity, Mean Humidity, Min Humidity, Max Sea Level PressureIn, Mean Sea Level PressureIn, Min Sea Level PressureIn, Max VisibilityMiles, Mean VisibilityMiles, Min VisibilityMiles, Max Wind SpeedMPH, Mean Wind SpeedMPH, Max Gust SpeedMPH,PrecipitationIn, CloudCover, Events, WindDirDegrees
2013-3-1,26,22,17,19,15,9,86,72,59,30.24,30.19,30.12,10,10,4,20,11,28,0.00,5,Snow,359
2013-3-2,24,16,8,10,7,3,85,68,50,30.24,30.20,30.14,10,10,10,15,8,21,0.00,2,,343
2013-3-3,24,14,3,10,4,-2,86,64,34,30.14,30.11,30.08,10,10,7,7,2,,0.00,0,,8
2013-3-4,32,21,10,23,13,3,80,67,55,30.11,30.08,30.04,10,10,10,14,7,18,0.00,4,,71
2013-3-5,32,28,24,27,22,18,100,78,60,30.07,29.97,29.89,10,6,0,18,10,26,0.04,8,Snow,29
2013-3-6,32,29,26,23,22,19,86,75,69,30.30,30.23,30.08,10,10,5,14,10,22,0.00,8,,314
2013-3-7,32,23,14,19,15,10,93,71,55,30.42,30.37,30.29,10,10,7,7,3,,0.00,1,,331
2013-3-8,35,26,17,25,20,12,93,74,60,30.45,30.39,30.28,10,10,7,13,6,16,0.00,0,,138
2013-3-9,37,32,28,34,28,21,100,80,69,30.27,30.03,29.80,10,8,2,15,11,,0.11,6,Rain-Snow,137
2013-3-10,37,35,33,37,35,34,100,99,93,29.82,29.74,29.61,10,3,0,18,9,29,0.62,8,Fog-Rain-Snow,68
2013-3-11,33,32,30,34,31,23,100,98,75,29.73,29.60,29.53,10,4,0,13,7,20,0.01,8,Fog-Rain-Snow,310
2013-3-12,32,28,24,28,20,12,100,70,55,29.98,29.85,29.73,10,9,1,17,10,26,0.00,8,Snow,267
2013-3-13,32,26,19,14,8,1,80,52,29,30.28,30.19,30.00,10,10,10,14,9,22,0.00,1,,289
2013-3-14,32,24,17,27,16,7,93,66,50,30.28,30.20,30.04,10,10,4,10,5,,0.00,2,,208
2013-3-15,33,30,26,32,28,23,100,93,75,30.04,29.91,29.83,10,4,1,16,6,18,0.00,6,Rain-Snow,73
2013-3-16,28,24,19,27,18,12,100,74,55,30.12,29.97,29.81,10,9,0,16,10,22,0.00,7,Snow,335
2013-3-17,30,22,15,16,11,3,80,60,51,30.26,30.16,30.01,10,10,10,14,8,20,0.00,1,,42
2013-3-18,32,24,17,32,23,9,100,82,63,30.01,29.72,29.55,10,6,0,26,10,31,0.07,7,Snow,144
2013-3-19,28,21,14,9,5,1,73,55,34,30.01,29.84,29.68,10,10,7,25,18,33,0.00,3,Snow,254
2013-3-20,19,14,8,3,-1,-6,57,50,42,30.04,30.02,29.99,10,10,10,15,9,21,0.00,1,,278
2013-3-21,28,18,8,10,5,0,68,58,43,30.04,30.01,29.99,10,10,10,10,6,,0.00,0,,278
2013-3-22,30,21,12,18,10,3,80,61,44,30.07,30.04,30.02,10,10,10,7,2,,0.00,0,,267
2013-3-23,33,25,17,21,15,12,86,64,44,30.13,30.09,30.06,10,10,10,9,2,,0.00,1,,31
2013-3-24,32,30,28,28,24,19,93,78,64,30.07,29.91,29.78,10,8,1,18,9,26,0.00,8,Rain-Snow,9
2013-3-25,32,28,23,25,21,18,86,72,64,30.09,29.94,29.82,10,10,10,21,13,28,0.00,7,,344
2013-3-26,37,34,30,27,22,19,75,65,56,30.24,30.17,30.09,10,10,10,10,7,,0.00,8,,312
2013-3-27,39,34,30,25,20,14,80,58,36,30.30,30.28,30.24,10,10,10,10,4,,0.00,5,,275
2013-3-28,41,34,26,23,18,12,69,53,31,30.34,30.31,30.28,10,10,10,7,2,,0.00,0,,274
2013-3-29,44,35,26,25,21,16,86,57,31,30.33,30.28,30.22,10,10,10,7,3,,0.00,0,,222
2013-3-30,50,41,32,37,29,21,87,65,47,30.22,30.01,29.81,10,10,5,21,8,24,0.00,7,Rain,173
2013-3-31,44,38,32,39,31,16,100,81,46,29.90,29.77,29.71,10,7,1,17,8,24,0.00,6,Rain-Snow,266